This demonstration page uses our WeatherBlox Daily Observations layout. Learn more.

Left ArrowRight Arrow

34.74481, -87.66753

Hourly Observations for December 29, 2018

Temp ( °F °C ) Dew Point ( °F °C ) Humidity (%) Winds ( mph kmh ) Pressure ( in mb ) Visibility ( mi km ) Precip ( " mm )
12:53 am 00:53 Clear 41 5 36 2.2 82 82 NNW 6 9 30.25 1024 10 16 0.00 0.00
1:53 am 01:53 Clear 40 4.4 35 1.7 83 83 N 3 6 30.25 1025 10 16 0.00 0.00
2:53 am 02:53 Clear 39 3.9 34 1.1 82 82 N 6 9 30.26 1025 10 16 0.00 0.00
3:53 am 03:53 Clear 38 3.3 33 0.6 83 83 NNW 3 6 30.27 1025 10 16 0.00 0.00
4:53 am 04:53 Mostly Clear 38 3.3 33 0.6 83 83 N 3 6 30.28 1025 10 16 0.00 0.00
5:10 am 05:10 Mostly Cloudy 38 3.3 34 1.1 86 86 N 5 7 30.33 1027 10 16 0.00 0.00
5:34 am 05:34 Cloudy 38 3.3 34 1.1 86 86 N 5 7 30.33 1027 10 16 0.00 0.00
5:53 am 05:53 Cloudy 38 3.3 34 1.1 86 86 NNE 8 13 30.30 1026 10 16 0.00 0.00
6:53 am 06:53 Cloudy 39 3.9 35 1.7 86 86 VRB 6 9 30.34 1028 10 16 0.00 0.00
7:48 am 07:48 Cloudy 39 4 36 2 87 87 VRB 5 7 30.39 1029 10 16 0.00 0.00
7:53 am 07:53 Cloudy 40 4.4 35 1.7 83 83 NNE 5 7 30.35 1028 10 16 0.00 0.00
8:53 am 08:53 Cloudy 42 5.6 36 2.2 79 79 N 6 9 30.37 1029 10 16 0.00 0.00
9:29 am 09:29 Partly Cloudy 42 5.6 36 2.2 79 79 NE 8 13 30.36 1028 10 16 0.00 0.00
9:53 am 09:53 Partly Cloudy 44 6.7 37 2.8 76 76 ENE 10 17 30.34 1028 10 16 0.00 0.00
10:53 am 10:53 Sunny 46 7.8 37 2.8 71 71 ENE 5 7 30.32 1027 10 16 0.00 0.00
11:53 am 11:53 Sunny 48 8.9 37 2.8 66 66 ENE 7 11 30.27 1025 10 16 0.00 0.00
12:53 pm 12:53 Sunny 50 10 36 2.2 59 59 E 6 9 30.25 1024 10 16 0.00 0.00
1:53 pm 13:53 Sunny 51 10.6 37 2.8 59 59 VRB 5 7 30.25 1025 10 16 0.00 0.00
2:53 pm 14:53 Sunny 50 10 36 2.2 59 59 N 7 11 30.26 1025 10 16 0.00 0.00
3:53 pm 15:53 Sunny 49 9.4 34 1.1 56 56 N 7 11 30.27 1025 10 16 0.00 0.00
4:53 pm 16:53 Mostly Clear 48 8.9 35 1.7 61 61 NNE 9 15 30.27 1025 10 16 0.00 0.00
5:53 pm 17:53 Mostly Cloudy 48 8.9 35 1.7 61 61 ENE 7 11 30.27 1025 10 16 0.00 0.00
6:53 pm 18:53 Cloudy 47 8.3 36 2.2 66 66 E 7 11 30.24 1024 10 16 0.00 0.00
7:53 pm 19:53 Cloudy 47 8.3 35 1.7 63 63 E 7 11 30.23 1024 10 16 0.00 0.00
8:53 pm 20:53 Cloudy 47 8.3 37 2.8 69 69 Calm 30.24 1024 10 16 0.00 0.00
9:53 pm 21:53 Mostly Cloudy 46 7.8 37 2.8 71 71 SSE 5 7 30.23 1024 10 16 0.00 0.00
10:53 pm 22:53 Mostly Cloudy 46 7.8 37 2.8 71 71 Calm 30.21 1023 10 16 0.00 0.00
11:53 pm 23:53 Cloudy 47 8.3 38 3.3 71 71 Calm 30.19 1023 10 16 0.00 0.00

Powered by AerisWeather